OneWeb SL0295

operational
NORAD ID: 49084 Int'l Des: 2021-075 Owner: ONEWEBN Country: UK Constellation: oneweb
LEOCIRCULARPOLARONEWEB_TYPE

Über OneWeb SL0295

Beschreibung wird geladen...

Live-Position

3D-Globus wird geladen...

Nächste Überflüge

Höhenverlauf

Altitude vs Time

uPlot chart will show altitude changes over time

Zweizeiliger Elementsatz

1 49084U 21075K 26033.47699006 .00000070 00000-0 14705-3 0 9992
2 49084 87.9093 32.6368 0002226 90.7403 269.3983 13.17648037215857
Epoch: 2. Feb. 2026 • Age: 16 hours

Aktueller Status

Höhe 1199.8 km
Geschwindigkeit 7.25 km/s
Subsatellitenpunkt -13.73°S, 158.06°W
Startdatum 21. Aug. 2021
Alter 4.4 years
Typ internet

Technische Details

Klassifizierung Payload
Masse 148.00 kg
Trockenmasse 140.00 kg
Gesamtmasse 148.00 kg
Länge 1.30 m
Durchmesser 1.00 m
Spannweite 5.00 m
Form Trapezoid+2 pan
Hersteller ONEWUS
Bus-Typ ARROW
Phasenstatus In Orbit
Besitzer/Staat ONEWEBN/UK

Große Konstellationen

Loading constellations...